Theta_e
336 344 347 345 347 348 348 349 347 347 345 344 345 344 343 345 343 344 345 345 346 347 348 348 347 347 347 346 345 346 346 345 346 345 345 345 346 346 345 344 344 341 345
339 345 346 346 347 347 347 349 348 347 345 344 343 343 344 345 342 340 342 344 344 345 346 346 345 345 344 343 344 345 344 345 344 343 343 343 344 344 344 342 343 341 343
341 344 343 345 347 347 348 348 348 347 344 343 343 342 345 344 341 339 339 339 341 341 343 344 344 343 342 342 343 344 344 343 342 341 340 337 338 342 342 341 342 341 341
343 343 341 343 346 346 347 348 348 346 344 342 343 341 342 342 342 340 339 341 339 339 341 342 342 341 341 340 341 342 342 341 339 338 334 334 335 340 340 339 338 338 338
341 342 341 343 346 346 348 348 348 346 345 342 343 340 340 341 340 339 340 339 338 338 338 338 338 339 339 339 339 340 341 339 337 333 332 331 332 336 337 335 335 336 337
341 340 341 344 345 346 346 348 348 346 345 343 341 339 340 340 340 343 342 342 341 340 339 340 340 338 338 338 338 339 340 338 333 329 329 332 330 334 333 334 334 334 335
340 339 341 343 344 345 346 347 347 346 345 344 342 339 339 340 340 340 340 340 340 339 338 339 338 337 337 336 336 335 335 334 326 327 328 326 327 333 333 333 334 334 333
339 339 339 337 340 342 344 344 345 346 345 343 342 340 338 339 339 339 338 338 339 338 337 337 336 335 335 334 333 333 332 331 327 327 326 325 332 332 333 333 333 332 332
340 339 338 338 337 336 339 339 342 344 344 342 342 341 339 338 338 337 336 333 334 336 336 335 334 334 333 331 331 330 329 327 322 324 325 324 332 331 332 330 330 330 330
338 338 336 335 336 336 335 333 336 338 340 340 338 335 333 332 332 331 328 330 333 334 334 333 333 332 330 329 328 327 326 326 321 321 323 325 331 331 331 329 329 329 328
335 336 336 334 334 334 335 332 331 333 334 333 331 328 327 327 327 327 326 328 330 335 334 332 330 329 327 326 325 325 325 322 319 321 321 328 329 329 329 328 328 327 326
332 335 335 335 332 333 335 333 334 335 336 335 333 327 331 330 328 326 322 325 327 329 331 330 326 325 324 320 318 322 320 320 319 319 320 327 327 328 327 326 325 323 324
333 334 336 336 334 334 332 332 331 332 333 336 334 331 332 328 324 324 321 320 319 320 320 322 319 320 320 319 319 319 319 318 317 318 321 325 327 325 323 323 323 322 321
331 333 335 336 336 333 334 331 331 329 331 333 335 333 331 327 324 323 320 319 319 318 318 319 318 319 319 320 320 319 318 317 317 317 317 321 325 321 321 321 320 321 318
330 332 334 336 335 335 332 332 332 331 330 331 331 333 332 327 324 323 321 320 320 319 317 316 317 317 317 318 319 318 317 317 317 316 315 317 322 322 320 321 320 320 318
331 331 334 335 336 335 334 332 332 332 331 330 330 330 330 327 324 322 321 321 319 317 316 316 316 316 316 316 316 317 316 316 316 315 315 314 319 323 321 321 321 320 319
331 332 332 334 336 335 334 334 332 332 331 330 329 329 328 327 325 322 320 319 319 318 315 315 315 316 314 316 315 314 313 314 314 315 314 314 314 318 321 321 321 321 320
327 331 331 332 334 335 334 334 334 333 331 330 330 330 327 327 325 321 320 319 319 316 314 313 313 313 312 312 312 312 311 312 312 313 313 313 313 314 318 321 322 321 321
327 330 331 331 331 333 334 334 334 333 331 330 330 329 328 326 325 322 320 319 318 315 312 312 312 312 311 310 311 311 309 309 309 311 310 311 311 311 311 317 318 319 321
324 327 331 332 331 331 332 333 333 332 331 330 329 328 329 327 325 322 320 319 317 314 311 311 310 311 310 310 311 308 307 307 307 307 308 309 309 310 310 310 310 310 315
321 324 328 331 331 330 330 329 329 329 330 329 330 329 328 328 326 322 320 318 316 313 311 310 309 309 308 309 306 304 304 306 305 305 306 307 309 309 309 308 309 310 310
312 319 324 326 331 330 329 330 330 330 330 330 330 328 328 327 327 322 320 318 315 312 311 309 307 306 307 308 304 304 302 304 303 305 304 306 306 307 306 308 308 309 309
302 304 315 322 325 331 330 330 329 330 328 328 328 328 328 327 326 325 322 319 315 313 311 309 306 306 302 303 305 305 300 300 300 303 304 305 304 305 306 305 306 306 306
301 303 305 306 315 324 330 327 327 326 325 327 328 328 326 326 325 324 323 321 316 313 311 309 306 307 305 302 300 303 301 300 300 299 301 299 300 302 302 303 303 302 304
305 305 305 304 304 310 325 328 326 325 326 326 327 326 325 323 323 323 321 320 317 314 312 310 308 307 307 306 302 300 301 298 297 297 298 300 295 295 298 300 302 302 303
307 309 308 303 302 305 311 326 326 325 324 323 324 324 324 322 321 321 320 320 318 314 312 311 309 307 306 306 306 303 302 299 296 295 294 297 298 300 297 295 297 298 299
Wind_Speed
11 10 13 12 11 11 11 14 14 14 14 14 16 15 15 17 18 16 15 16 17 17 19 20 20 21 21 21 22 21 21 20 20 22 21 21 22 23 23 20 18 16 23
15 12 12 13 12 11 10 14 14 13 14 14 15 16 15 17 19 17 16 16 17 18 18 18 20 19 19 19 18 18 18 15 16 18 18 19 21 23 23 20 19 19 23
15 13 10 12 12 11 10 13 13 13 14 14 15 15 15 17 18 17 15 15 16 16 17 17 17 19 17 16 15 16 16 18 19 18 15 11 14 21 23 20 19 20 20
15 12 10 11 11 12 9 11 13 14 14 14 15 15 15 16 16 17 16 15 15 16 16 17 16 16 15 15 14 15 15 20 18 16 10 11 12 21 21 21 19 19 19
14 12 12 10 11 11 11 13 14 14 14 14 14 14 14 14 14 15 13 15 15 16 17 17 17 16 15 14 15 15 17 18 15 13 11 9 8 15 18 18 16 17 16
14 13 11 11 11 10 11 11 13 14 13 13 13 14 14 13 14 14 18 16 15 18 17 17 17 17 15 14 15 15 13 14 11 9 9 10 8 14 14 15 16 17 16
12 12 10 11 10 9 10 9 11 14 14 14 13 14 13 13 14 14 16 14 16 16 16 16 17 16 14 13 14 15 15 14 9 9 10 7 6 14 14 14 16 17 18
13 11 10 10 10 9 9 9 11 12 14 14 13 13 12 13 13 12 14 11 14 17 16 15 15 14 13 13 13 13 11 9 10 9 8 5 9 13 15 16 16 17 16
12 11 9 8 7 9 8 8 10 10 13 13 12 12 11 11 10 11 12 11 11 14 16 14 13 13 12 11 10 10 11 12 9 6 7 4 8 13 14 14 14 14 15
11 9 9 8 7 6 6 8 8 9 10 11 11 10 10 10 10 10 10 10 10 11 14 13 11 11 11 9 8 10 11 8 8 7 5 4 12 14 14 13 13 14 14
9 7 10 9 7 7 7 6 7 8 7 10 9 10 9 5 5 6 9 9 10 10 12 13 9 7 8 6 5 6 8 5 5 5 3 8 10 11 13 12 12 12 12
8 5 6 8 8 7 8 7 6 6 4 5 6 6 4 5 5 7 7 9 8 9 10 9 4 1 3 2 1 5 2 5 5 5 3 8 8 10 10 9 9 8 9
9 5 5 6 7 9 7 5 3 3 4 5 8 6 3 6 5 5 3 3 4 5 3 3 2 2 1 2 2 3 3 3 4 4 4 6 8 8 7 7 7 6 6
10 10 7 7 3 6 6 5 5 4 4 4 5 5 4 3 4 5 4 4 4 3 5 4 2 2 3 3 4 3 3 3 3 3 4 4 3 5 5 5 5 4 4
12 11 11 9 6 4 7 5 5 5 4 6 6 5 4 4 4 5 5 4 4 4 4 3 3 2 2 1 1 2 3 4 4 3 3 4 1 5 5 5 5 5 4
14 12 11 11 9 7 4 8 5 5 5 4 5 6 7 4 5 4 5 4 4 4 4 4 4 3 2 2 0 1 1 1 1 3 4 4 3 3 4 6 7 6 7
14 14 13 11 11 10 8 5 3 4 5 5 4 7 7 5 6 5 4 3 4 4 5 3 3 3 3 2 4 2 0 2 2 2 2 4 5 8 6 9 9 9 9
10 16 14 12 11 11 10 7 4 4 4 4 4 5 7 6 7 5 5 4 4 4 4 3 3 3 3 4 3 4 3 3 5 4 3 3 4 4 7 9 11 12 12
10 13 15 14 15 13 10 8 8 5 4 4 4 4 8 7 6 5 5 5 5 4 4 4 4 4 3 3 3 3 3 3 4 3 5 5 5 3 3 9 11 10 12
10 10 14 13 14 12 9 7 6 5 5 4 4 4 7 7 7 5 5 6 6 4 4 3 4 3 3 4 3 2 3 4 4 4 5 5 5 5 5 4 4 5 10
8 9 12 15 14 11 8 9 7 8 7 7 6 7 7 8 9 7 4 5 5 6 5 5 3 4 3 1 3 2 4 6 7 5 5 5 6 5 5 6 4 4 5
6 8 8 10 14 13 10 8 8 7 7 7 5 5 6 8 9 7 6 5 6 4 5 5 5 2 1 3 3 0 4 3 4 6 4 5 6 4 5 7 6 6 5
6 7 7 8 9 14 13 9 4 3 3 6 7 7 8 8 7 9 8 6 6 6 5 4 5 6 4 3 5 3 1 4 3 0 5 5 6 5 4 5 8 7 7
2 2 5 6 7 7 16 12 15 10 8 7 8 6 7 7 8 7 9 7 7 5 7 7 5 6 4 5 0 3 2 3 3 4 2 3 4 5 6 5 6 6 7
4 4 4 6 7 7 8 13 11 12 9 6 6 8 8 6 7 7 7 7 8 7 7 8 6 8 7 4 4 2 4 2 2 4 7 5 3 4 5 7 8 8 9
1 4 5 5 7 7 5 9 11 11 8 5 5 7 6 6 6 8 8 8 8 7 8 8 8 8 8 7 5 5 5 4 4 5 7 8 7 5 5 5 7 7 7
Wind_Direction
111 124 123 118 112 106 102 103 97 89 81 80 81 80 81 84 80 70 66 66 67 76 79 74 77 72 72 75 77 76 75 74 73 69 63 65 71 68 65 63 65 68 70
122 126 122 121 116 103 103 110 102 92 87 85 83 80 76 88 80 76 71 68 69 69 78 75 78 77 75 73 72 70 70 72 71 72 68 64 67 70 67 64 67 69 68
123 125 123 120 119 110 99 112 109 99 88 88 88 83 80 89 88 83 82 78 73 78 77 78 79 77 71 70 69 65 73 72 66 65 63 62 62 64 64 62 61 63 68
123 130 128 123 125 119 103 118 115 104 98 95 93 88 80 87 90 88 85 81 81 82 77 73 72 75 73 72 69 56 59 73 66 61 58 55 56 63 65 61 62 64 62
125 119 122 124 126 120 111 111 117 111 105 101 95 91 87 79 83 89 90 91 85 87 85 86 85 84 82 81 65 51 72 73 70 64 61 64 62 65 64 68 63 66 69
114 114 124 126 128 120 111 109 123 121 113 106 100 95 88 77 81 84 82 78 91 85 80 82 85 85 80 69 58 46 67 80 73 68 69 59 54 73 70 73 73 73 72
118 120 128 126 123 121 115 113 117 127 117 110 108 106 96 81 82 82 89 83 83 86 84 81 81 84 71 62 49 44 42 82 76 67 66 53 60 65 72 75 80 79 74
124 124 129 126 125 121 115 109 112 126 126 122 121 115 105 96 90 85 82 97 102 97 86 83 83 79 71 57 43 32 34 70 76 72 68 49 64 77 82 78 76 75 76
121 122 132 137 130 125 124 119 118 114 135 132 128 121 108 95 86 85 86 95 90 86 83 81 83 79 72 60 44 23 28 68 71 59 67 42 73 85 82 75 77 81 79
123 143 146 137 150 144 138 119 118 121 129 130 116 111 104 101 99 97 96 103 96 100 99 92 83 81 74 61 33 11 355 45 72 66 53 50 77 82 83 83 86 86 89
130 170 149 147 165 151 136 130 112 111 119 119 121 130 136 128 117 108 105 114 105 89 96 98 90 95 94 65 10 347 338 94 75 74 66 75 80 88 90 88 88 89 87
133 180 143 157 166 153 151 149 147 144 151 151 139 171 190 140 135 107 112 121 101 78 80 83 87 234 264 143 278 328 8 97 93 88 63 73 88 92 91 93 88 91 97
148 168 156 190 185 162 138 169 154 160 167 159 147 191 180 120 128 117 126 130 124 139 138 149 206 263 313 74 35 61 11 57 103 96 86 69 102 98 102 99 96 98 96
167 182 172 187 215 172 138 171 159 161 157 150 174 168 165 126 165 136 145 163 165 187 154 165 201 82 42 34 62 64 25 41 88 114 107 89 134 119 122 132 130 125 130
181 183 178 181 191 183 191 181 176 168 165 156 160 165 192 166 176 149 153 177 175 174 152 192 134 160 124 65 60 83 42 50 42 114 125 141 20 162 173 165 168 169 172
176 188 181 184 186 187 187 200 184 186 165 173 155 169 204 175 164 163 161 183 156 151 168 173 163 164 170 144 67 38 40 67 167 106 156 165 196 265 221 207 200 200 195
174 175 184 187 183 186 193 203 186 181 167 183 168 165 181 182 168 163 164 181 165 161 161 156 151 152 150 175 187 170 343 311 325 235 186 182 188 207 238 231 226 225 223
166 173 182 195 186 187 190 199 207 186 182 170 180 160 175 193 171 168 168 181 168 146 152 161 171 191 193 186 206 199 202 213 244 250 230 223 194 200 217 230 236 228 235
175 168 173 193 200 195 194 189 196 200 184 175 176 171 170 184 198 169 173 180 160 154 181 186 198 176 195 200 215 212 213 221 239 263 268 254 254 235 205 223 224 245 245
178 174 171 178 194 201 198 197 190 195 205 179 197 179 176 176 192 185 184 176 157 162 196 199 187 209 176 187 207 223 256 236 227 230 234 239 233 240 254 250 236 228 236
190 176 175 176 182 187 193 192 190 193 188 198 191 196 185 180 184 191 186 174 162 175 191 194 186 192 237 181 109 310 260 234 224 224 222 231 231 223 214 237 225 216 232
204 200 192 181 179 185 185 200 199 199 205 197 190 191 186 184 183 179 182 189 168 164 195 193 167 141 175 184 154 33 307 326 262 230 224 232 230 220 228 226 233 232 232
204 223 214 205 190 182 185 180 173 198 162 193 199 195 206 190 186 178 184 178 177 177 191 180 164 170 181 216 191 166 240 243 314 322 225 225 221 219 233 227 233 235 227
221 328 250 244 223 204 180 182 187 200 205 200 204 189 193 201 194 181 188 180 166 168 180 196 188 203 153 186 322 218 156 161 238 315 304 268 254 237 222 234 238 239 235
357 310 288 287 284 249 179 185 185 197 225 198 185 185 183 187 193 192 184 177 178 185 199 190 185 199 205 183 194 146 207 174 179 222 277 273 280 250 244 239 236 236 235
335 267 247 248 258 266 256 183 188 202 200 199 183 189 182 183 191 197 197 198 195 190 194 195 200 196 199 211 206 192 197 183 198 200 236 257 262 260 232 232 238 242 240